Location: ??????
(56.0120°N, 39.1740°E)
Time: 06:19:35
(UTC+00:00)

Cosmos 1420 Rocket - Pass Details

Date: 14 April 2026
Orbit: 749 x 777 km, 74.0° (Epoch: 10 May)

Event Time Altitude Azimuth Distance (km) Brightness Sun altitude
Exits shadow 21:20:23 52° 118° (ESE) 956 4.2 -24.3°
Maximum altitude 21:20:35 52° 110° (ESE) 953 4.3 -24.3°
Drops below altitude 10° 21:25:42 10° 35° (NE) 2,329 7.2 -24.3°
Sets 21:28:09 0° 31° (NNE) 3,264 8.2 -24.3°
